Cozumel, Mexico

10:04 AM EST on November 19, 2017 (GMT -0500)
Cozumel

Weather History for MMCZ - February, 2013

Change the Weather History Date:

Sunday, February 24, 2013

  Actual Average Record
Temperature  
Mean Temperature 75 °F -  
Max Temperature 84 °F 83 °F 87 °F (2008)
Min Temperature 66 °F 71 °F 60 °F (2011)
Cooling Degree Days 10    
Growing Degree Days 25 (Base 50)    
Moisture  
Dew Point 63 °F    
Average Humidity 69    
Maximum Humidity 88    
Minimum Humidity 51    
Precipitation  
Precipitation 0.00 in - - ()
Sea Level Pressure  
Sea Level Pressure 29.89 in    
Wind  
Wind Speed 5 mph ()    
Max Wind Speed 16 mph    
Max Gust Speed 22 mph    
Visibility 7.4 miles    
Events      
Averages and records for this station are not official NWS values.
T = Trace of Precipitation, MM = Missing Value Source: Averaged Metar Reports

Daily Weather History Graph

Daily Weather History Graph

Search for Another Location

Airport or City:

Trip Planner

Search our weather history database for the weather conditions in past years. The results will help you decide how hot, cold, wet, or windy it might be!

Date:

Astronomy

Feb. 24, 2013 Rise Set
Actual Time 6:11 AM CST 5:50 PM CST
Civil Twilight 5:49 AM CST 6:12 PM CST
Nautical Twilight 5:23 AM CST 6:38 PM CST
Astronomical Twilight 4:57 AM CST 7:04 PM CST
Moon 5:00 PM CST (2/24) 5:05 AM CST (2/24)
Length of Visible Light 12h 23m
Length of Day
11h 39m
Waxing Gibbous, 99% of the Moon is Illuminated
Feb 24
Waxing Gibbous
Feb 25
Full
Mar 4
Last Quarter
Mar 11
New
Mar 19
First Quarter

Hourly Weather History & Observations

Time (CST) Temp. Heat Index Dew Point Humidity Pressure Visibility Wind Dir Wind Speed Gust Speed Precip Events Conditions
12:44 AM 68.0 °F - 60.8 °F 78% 29.90 in 7.0 mi SE 3.5 mph - N/A   Partly Cloudy
1:43 AM 68.0 °F - 62.6 °F 83% 29.89 in 7.0 mi Calm Calm - N/A   Partly Cloudy
2:40 AM 68.0 °F - 60.8 °F 78% 29.91 in 7.0 mi ESE 3.5 mph - N/A   Partly Cloudy
3:42 AM 66.2 °F - 59.0 °F 78% 29.88 in 7.0 mi Calm Calm - N/A   Partly Cloudy
4:40 AM 68.0 °F - 64.4 °F 88% 29.89 in 7.0 mi Calm Calm - N/A   Partly Cloudy
5:57 AM 66.2 °F - 59.0 °F 78% 29.86 in 7.0 mi Calm Calm - N/A   Partly Cloudy
6:44 AM 66.2 °F - 60.8 °F 83% 29.91 in 7.0 mi SE 3.5 mph - N/A   Partly Cloudy
7:41 AM 71.6 °F - 64.4 °F 78% 29.93 in 7.0 mi SE 4.6 mph - N/A   Scattered Clouds
8:41 AM 75.2 °F - 64.4 °F 69% 29.97 in 8.0 mi SE 9.2 mph 20.7 mph N/A   Scattered Clouds
9:45 AM 78.8 °F - 64.4 °F 61% 29.95 in 8.0 mi SE 6.9 mph 18.4 mph N/A   Mostly Cloudy
10:42 AM 80.6 °F 82.3 °F 64.4 °F 58% 29.94 in 8.0 mi SSE 10.4 mph 21.9 mph N/A   Mostly Cloudy
11:54 AM 82.4 °F 83.9 °F 64.4 °F 54% 29.88 in 8.0 mi ESE 16.1 mph - N/A   Scattered Clouds
12:53 PM 84.2 °F 86.6 °F 66.2 °F 55% 29.89 in 8.0 mi SE 10.4 mph - N/A   Mostly Cloudy
1:47 PM 82.4 °F 83.9 °F 64.4 °F 54% 29.86 in 8.0 mi SE 9.2 mph - N/A   Mostly Cloudy
2:42 PM 82.4 °F 83.4 °F 62.6 °F 51% 29.87 in 8.0 mi SE 16.1 mph - N/A   Mostly Cloudy
3:40 PM 80.6 °F 82.3 °F 64.4 °F 58% 29.83 in 8.0 mi SE 9.2 mph - N/A   Scattered Clouds
4:40 PM 80.6 °F 82.3 °F 64.4 °F 58% 29.85 in 8.0 mi SE 8.1 mph - N/A   Scattered Clouds
5:40 PM 77.0 °F - 62.6 °F 61% 29.83 in 8.0 mi SE 5.8 mph - N/A   Clear
6:43 PM 71.6 °F - 60.8 °F 69% 29.88 in 7.0 mi Calm Calm - N/A   Partly Cloudy
7:41 PM 71.6 °F - 60.8 °F 69% 29.88 in 7.0 mi SE 6.9 mph - N/A   Partly Cloudy
8:41 PM 69.8 °F - 62.6 °F 78% 29.92 in 7.0 mi SE 5.8 mph - N/A   Partly Cloudy
9:43 PM 71.6 °F - 62.6 °F 73% 29.87 in 7.0 mi SE 8.1 mph - N/A   Partly Cloudy
10:47 PM 73.4 °F - 62.6 °F 69% 29.88 in 7.0 mi SE 8.1 mph - N/A   Partly Cloudy
11:43 PM 73.4 °F - 62.6 °F 69% 29.82 in 7.0 mi SE 9.2 mph - N/A   Partly Cloudy